#timestamp,LO_Frequency,Hit,StdDev 
1547798415.0,286046996.9,N
1547798415.9,286046996.9,N
1547798435.7,286046996.7,N
1547798455.6,286046999.4,N
1547798475.4,286046997.0,N
1547798495.3,286046995.6,N
1547798515.1,286046993.4,N
1547798516.0,286046993.4,N
1547798535.8,286046993.4,N
1547798555.7,286046994.9,N
1547798575.5,286046997.8,N
1547798595.3,286046995.7,N
1547798615.2,286046997.7,N
1547798635.0,286046993.9,N
1547798635.9,286046993.9,N
1547798655.8,286046991.8,Y
1547798675.6,286046996.8,P
1547798695.4,286046998.7,P
1547798715.3,286046999.4,N
1547798735.1,286046998.3,N
1547798755.9,286046996.5,Y
1547798775.7,286047000.8,P
1547798795.5,286047002.2,N
1547798815.4,286047000.4,N
1547798835.2,286046996.6,N
1547798855.0,286047000.5,N
1547798855.9,286047000.5,N
1547798875.8,286047002.1,N
1547798895.6,286047002.2,N
1547798915.5,286047004.4,N
1547798935.3,286046999.7,N
1547798955.1,286047000.0,N
1547798975.9,286046999.8,N
1547798995.7,286047000.5,N
1547799015.5,286046998.2,N
1547799035.4,286046999.1,N
1547799055.2,286047002.7,N
1547799075.1,286047001.2,N
1547799076.0,286047001.2,N
1547799095.8,286047000.9,N
1547799115.6,286047000.5,N
1547799135.5,286046997.2,N
1547799155.3,286046997.8,N
1547799175.1,286046995.7,N
1547799195.9,286046996.6,N
1547799215.7,286047002.6,N
1547799235.6,286047000.5,N
1547799255.4,286047001.6,N
1547799275.2,286046999.7,N
1547799295.1,286047002.6,N
1547799296.0,286047002.6,N
1547799315.8,286046999.8,N
1547799335.6,286046998.1,N
1547799355.5,286046999.5,N
1547799375.3,286046999.3,N
1547799395.2,286046998.2,N
1547799415.9,286046999.2,N
1547799435.7,286046996.9,N
1547799455.6,286046996.8,N
1547799475.4,286046995.0,N
1547799495.2,286046996.9,N
1547799515.1,286046998.3,N
1547799516.0,286046998.3,N
1547799535.8,286047000.5,N
1547799555.7,286047000.7,N
1547799575.5,286046998.4,N
1547799595.3,286047000.1,N
1547799615.2,286046998.8,N
1547799635.9,286047002.8,N
1547799655.7,286047000.0,N
1547799675.6,286046999.1,N
1547799695.4,286046997.1,N
1547799715.2,286046997.1,N
1547799735.1,286046996.9,N
1547799736.0,286046996.9,N
1547799755.8,286046998.4,N
1547799775.7,286047000.2,N
1547799795.5,286047000.4,N
1547799815.3,286047001.6,N
1547799835.2,286047003.4,N
1547799855.0,286047000.0,N
1547799855.9,286047000.0,N
1547799875.8,286047002.8,N
1547799895.6,286047001.0,N
1547799915.4,286046997.5,N
1547799935.3,286046998.4,N
1547799955.1,286047005.3,N
1547799975.8,286047003.4,N
1547799995.7,286047003.0,N
1547800015.5,286047003.4,N
1547800035.4,286047005.5,N
1547800055.2,286047005.7,N
1547800075.0,286047003.5,N
1547800075.9,286047003.5,N
1547800095.8,286047002.4,N
1547800115.6,286046998.1,N
1547800135.4,286047000.8,N
1547800155.3,286047011.9,Y
1547800175.1,286046996.7,P
1547800195.9,286046997.4,N
1547800215.7,286046997.9,N
1547800235.5,286046999.1,N
1547800255.4,286046999.3,N
1547800275.2,286046999.3,N
1547800295.0,286046998.4,N
1547800295.9,286046998.4,N
1547800315.8,286047000.5,N
1547800335.6,286046998.2,N
1547800355.5,286046998.5,N
1547800375.3,286047000.9,N
1547800395.1,286047001.2,N
1547800415.9,286047000.7,N
1547800435.7,286046998.3,N
1547800455.5,286046998.3,N
1547800475.4,286046999.6,N
1547800495.2,286046998.8,N
1547800515.1,286046998.8,N
1547800516.0,286046998.8,N
1547800535.8,286046998.7,N
1547800555.6,286046999.1,N
1547800575.5,286047003.5,Y
1547800595.3,286047004.9,P
1547800615.1,286047005.1,N
1547800635.9,286047007.3,N
1547800655.7,286047007.2,N
1547800675.6,286047004.5,N
1547800695.4,286047005.2,N
1547800715.2,286047003.0,N
1547800735.1,286047006.6,N
1547800736.0,286047006.6,N
1547800755.8,286047005.2,N
1547800775.6,286047005.9,N
1547800795.5,286047001.7,N
1547800815.3,286047003.8,N
1547800835.1,286047005.6,N
1547800855.9,286047003.2,N
1547800875.7,286047003.3,N
1547800895.6,286047005.8,N
1547800915.4,286047004.8,N
1547800935.2,286047005.5,N
1547800955.1,286047005.2,N
1547800956.0,286047005.2,N
1547800975.8,286047005.8,Y
1547800995.7,286047001.9,P
1547801015.5,286047001.1,N
1547801035.3,286046998.7,N
1547801055.2,286046997.3,N
1547801075.9,286047002.8,N
1547801095.7,286047000.4,N
1547801115.6,286046997.0,N
1547801135.4,286046999.2,N
1547801155.3,286046999.4,N
1547801175.1,286046997.0,N
1547801176.0,286046997.0,N
1547801195.8,286046997.4,N
1547801215.7,286046997.1,N
1547801235.5,286046997.5,N
1547801255.3,286046995.8,N
1547801275.2,286046993.3,N
1547801295.0,286046997.7,N
1547801295.9,286046997.7,N
1547801315.8,286046995.4,N
1547801335.6,286046995.5,N
1547801355.4,286046998.3,N
1547801375.3,286047000.3,N
1547801395.1,286047000.0,N
1547801396.0,286047000.0,N
1547801415.8,286047002.6,N
1547801435.7,286047003.9,N
1547801455.5,286047001.9,N
1547801475.3,286047003.8,N
1547801495.2,286047001.6,N
1547801515.0,286047000.9,N
1547801515.9,286047000.9,N
1547801535.8,286046998.7,N
1547801555.6,286047004.1,N
1547801575.4,286047003.7,N
1547801595.3,286047004.1,N
1547801615.1,286047003.6,N
1547801635.8,286047004.1,N
1547801655.7,286047003.1,N
1547801675.5,286047002.0,N
1547801695.4,286047002.2,N
1547801715.2,286046998.5,N
1547801735.0,286046997.4,N
1547801735.9,286046997.4,N
1547801755.8,286046995.3,N
1547801775.6,286046997.3,N
1547801795.4,286046995.4,N
1547801815.3,286046995.2,N
1547801835.1,286046995.5,N
1547801855.9,286046998.0,N
1547801875.7,286046996.9,N
1547801895.5,286046999.3,N
1547801915.4,286046999.3,N
1547801935.2,286046998.3,N
1547801955.0,286047003.9,N
1547801955.9,286047003.9,N
1547801975.8,286047004.4,N
1547801995.6,286047002.8,N
